• In Hungary
  • List of Countries
  • For 7 days
  • Water Temperature
  • Satellite Maps
  • Weather Map
  • News
  • Weather Widgets
  • user-avatar
    Login

    Hourly Weather Perekosy

    Today, 20 January, Saturday

    Time Temperature Precipitation Wind Pressure Humidity
    00:00 -4°C° 0 mm 3 mps 731 mmHg 87%
    01:00 -4°C° 0 mm 3 mps 731 mmHg 87%
    02:00 -2°C° 0 mm 1 mps 731 mmHg 90%
    03:00 -2°C° 0 mm 1 mps 731 mmHg 90%
    04:00 -2°C° 0 mm 1 mps 731 mmHg 89%
    05:00 -4°C° 0 mm 2 mps 731 mmHg 88%
    06:00 -2°C° 0 mm 1 mps 731 mmHg 88%
    07:00 -2°C° 0 mm 1 mps 731 mmHg 87%
    08:00 -2°C° 0 mm 1 mps 732 mmHg 87%
    09:00 -1°C° 0 mm 1 mps 732 mmHg 83%
    10:00 0°C° 0 mm 1 mps 732 mmHg 80%
    11:00 +1°C° 0 mm 1 mps 732 mmHg 77%
    12:00 +2°C° 0 mm 1 mps 732 mmHg 76%
    13:00 +2°C° 0 mm 1 mps 732 mmHg 74%
    14:00 +3°C° 0 mm 1 mps 732 mmHg 73%
    15:00 +2°C° 0 mm 1 mps 731 mmHg 77%
    16:00 +1°C° 0 mm 1 mps 731 mmHg 81%
    17:00 0°C° 0 mm 1 mps 731 mmHg 86%
    18:00 0°C° 0.1 mm 1 mps 731 mmHg 87%
    19:00 -2°C° 0.1 mm 2 mps 731 mmHg 88%
    20:00 -2°C° 0.1 mm 2 mps 731 mmHg 90%
    21:00 -2°C° 0.2 mm 2 mps 730 mmHg 90%
    22:00 -2°C° 0.2 mm 2 mps 730 mmHg 90%
    23:00 -3°C° 0.2 mm 2 mps 730 mmHg 91%

    Tomorrow, 21 January, Sunday

    Time Temperature Precipitation Wind Pressure Humidity
    00:00 -3°C° 0.1 mm 2 mps 730 mmHg 90%
    01:00 -3°C° 0.1 mm 2 mps 730 mmHg 90%
    02:00 -3°C° 0.1 mm 2 mps 730 mmHg 89%
    03:00 -1°C° 0.2 mm 1 mps 730 mmHg 90%
    04:00 -1°C° 0.2 mm 1 mps 730 mmHg 91%
    05:00 -1°C° 0.2 mm 1 mps 730 mmHg 91%
    06:00 -1°C° 0 mm 1 mps 730 mmHg 91%
    07:00 -1°C° 0 mm 1 mps 730 mmHg 91%
    08:00 -1°C° 0 mm 1 mps 730 mmHg 91%
    09:00 0°C° 0 mm 1 mps 730 mmHg 88%
    10:00 -2°C° 0 mm 2 mps 730 mmHg 86%
    11:00 -1°C° 0 mm 2 mps 730 mmHg 83%
    12:00 -1°C° 0 mm 2 mps 730 mmHg 82%
    13:00 +1°C° 0 mm 2 mps 730 mmHg 81%
    14:00 +1°C° 0 mm 2 mps 729 mmHg 80%
    15:00 +1°C° 0.1 mm 2 mps 729 mmHg 82%
    16:00 -1°C° 0.1 mm 2 mps 729 mmHg 85%
    17:00 -2°C° 0.1 mm 2 mps 729 mmHg 87%
    18:00 -2°C° 0.1 mm 2 mps 730 mmHg 88%
    19:00 -2°C° 0.1 mm 2 mps 730 mmHg 88%
    20:00 -2°C° 0.1 mm 3 mps 730 mmHg 89%
    21:00 -3°C° 0.1 mm 2 mps 730 mmHg 90%
    22:00 -3°C° 0.1 mm 2 mps 731 mmHg 92%
    23:00 -3°C° 0.1 mm 2 mps 731 mmHg 93%

    Day after tomorrow, 22 January, Monday

    Time Temperature Precipitation Wind Pressure Humidity
    00:00 -3°C° 0.3 mm 2 mps 731 mmHg 94%
    01:00 -3°C° 0.3 mm 2 mps 731 mmHg 95%
    02:00 -4°C° 0.3 mm 3 mps 732 mmHg 96%
    03:00 -4°C° 0.5 mm 3 mps 732 mmHg 96%
    04:00 -4°C° 0.5 mm 3 mps 732 mmHg 96%
    05:00 -4°C° 0.5 mm 3 mps 732 mmHg 96%
    06:00 -4°C° 0.3 mm 3 mps 732 mmHg 96%
    07:00 -4°C° 0.3 mm 3 mps 733 mmHg 96%
    08:00 -4°C° 0.3 mm 3 mps 733 mmHg 96%
    09:00 -4°C° 0.2 mm 3 mps 733 mmHg 95%
    10:00 -4°C° 0.2 mm 3 mps 733 mmHg 94%
    11:00 -4°C° 0.2 mm 3 mps 734 mmHg 93%
    12:00 -2°C° 0.1 mm 2 mps 734 mmHg 92%
    13:00 -2°C° 0.1 mm 2 mps 734 mmHg 91%
    14:00 -2°C° 0.1 mm 2 mps 734 mmHg 90%
    15:00 -2°C° 0.1 mm 2 mps 735 mmHg 91%
    16:00 -3°C° 0.1 mm 2 mps 735 mmHg 93%
    17:00 -3°C° 0.1 mm 2 mps 735 mmHg 94%
    18:00 -1°C° 0.1 mm 1 mps 736 mmHg 95%
    19:00 -1°C° 0.1 mm 1 mps 736 mmHg 95%
    20:00 -2°C° 0.1 mm 1 mps 737 mmHg 96%
    21:00 -2°C° 0 mm 1 mps 737 mmHg 96%
    22:00 -2°C° 0 mm 1 mps 738 mmHg 96%
    23:00 -3°C° 0 mm 1 mps 738 mmHg 96%

    23 January, Tuesday

    Time Temperature Precipitation Wind Pressure Humidity
    00:00 -3°C° 0 mm 1 mps 738 mmHg 96%
    01:00 -3°C° 0 mm 1 mps 739 mmHg 96%
    02:00 -5°C° 0 mm 2 mps 739 mmHg 96%
    03:00 -5°C° 0 mm 2 mps 739 mmHg 95%
    04:00 -5°C° 0 mm 2 mps 740 mmHg 95%
    05:00 -5°C° 0 mm 2 mps 740 mmHg 95%
    06:00 -6°C° 0 mm 2 mps 740 mmHg 95%
    07:00 -6°C° 0 mm 2 mps 741 mmHg 94%
    08:00 -6°C° 0 mm 2 mps 741 mmHg 94%
    09:00 -6°C° 0 mm 2 mps 742 mmHg 93%
    10:00 -5°C° 0 mm 2 mps 742 mmHg 91%
    11:00 -5°C° 0 mm 2 mps 743 mmHg 89%
    12:00 -4°C° 0 mm 2 mps 743 mmHg 87%
    13:00 -4°C° 0 mm 2 mps 743 mmHg 85%
    14:00 -4°C° 0 mm 2 mps 743 mmHg 84%
    15:00 -4°C° 0 mm 2 mps 744 mmHg 86%
    16:00 -5°C° 0 mm 2 mps 744 mmHg 87%
    17:00 -4°C° 0 mm 1 mps 744 mmHg 89%
    18:00 -6°C° 0 mm 1 mps 745 mmHg 89%
    19:00 -7°C° 0 mm 1 mps 745 mmHg 89%
    20:00 -7°C° 0 mm 1 mps 746 mmHg 89%
    21:00 -8°C° 0 mm 1 mps 746 mmHg 88%
    22:00 -8°C° 0 mm 1 mps 747 mmHg 87%
    23:00 -8°C° 0 mm 1 mps 747 mmHg 86%

    24 January, Wednesday

    Time Temperature Precipitation Wind Pressure Humidity
    00:00 -8°C° 0 mm 1 mps 747 mmHg 85%
    01:00 -9°C° 0 mm 1 mps 747 mmHg 84%
    02:00 -9°C° 0 mm 1 mps 747 mmHg 83%
    03:00 -9°C° 0 mm 1 mps 747 mmHg 82%
    04:00 -9°C° 0 mm 1 mps 747 mmHg 81%
    05:00 -9°C° 0 mm 1 mps 748 mmHg 80%
    06:00 -9°C° 0 mm 1 mps 748 mmHg 79%
    07:00 -10°C° 0 mm 2 mps 748 mmHg 79%
    08:00 -10°C° 0 mm 2 mps 748 mmHg 78%
    09:00 -8°C° 0 mm 2 mps 748 mmHg 77%
    10:00 -7°C° 0 mm 2 mps 748 mmHg 76%
    11:00 -5°C° 0 mm 2 mps 749 mmHg 74%
    12:00 -4°C° 0 mm 2 mps 748 mmHg 74%
    13:00 -4°C° 0 mm 2 mps 748 mmHg 74%
    14:00 -3°C° 0 mm 2 mps 748 mmHg 73%
    15:00 -4°C° 0 mm 2 mps 748 mmHg 75%
    16:00 -5°C° 0 mm 2 mps 748 mmHg 77%
    17:00 -6°C° 0 mm 2 mps 748 mmHg 79%
    18:00 -7°C° 0 mm 2 mps 748 mmHg 79%
    19:00 -7°C° 0 mm 2 mps 748 mmHg 78%
    20:00 -8°C° 0 mm 2 mps 748 mmHg 78%
    21:00 -8°C° 0 mm 2 mps 748 mmHg 77%
    22:00 -8°C° 0 mm 2 mps 748 mmHg 77%
    23:00 -8°C° 0 mm 2 mps 748 mmHg 77%

    25 January, Thursday

    Time Temperature Precipitation Wind Pressure Humidity
    00:00 -8°C° 0 mm 2 mps 748 mmHg 76%
    01:00 -8°C° 0 mm 2 mps 748 mmHg 76%
    02:00 -8°C° 0 mm 2 mps 747 mmHg 75%
    03:00 -8°C° 0 mm 2 mps 747 mmHg 74%
    04:00 -8°C° 0 mm 2 mps 747 mmHg 74%
    05:00 -8°C° 0 mm 2 mps 747 mmHg 73%
    06:00 -9°C° 0 mm 3 mps 746 mmHg 73%
    07:00 -9°C° 0 mm 3 mps 746 mmHg 73%
    08:00 -9°C° 0 mm 3 mps 746 mmHg 73%
    09:00 -8°C° 0 mm 3 mps 746 mmHg 72%
    10:00 -6°C° 0 mm 3 mps 746 mmHg 71%
    11:00 -5°C° 0 mm 3 mps 746 mmHg 70%
    12:00 -4°C° 0 mm 3 mps 745 mmHg 72%
    13:00 -4°C° 0 mm 4 mps 745 mmHg 74%
    14:00 -3°C° 0 mm 4 mps 744 mmHg 76%
    15:00 -4°C° 0 mm 3 mps 744 mmHg 78%
    16:00 -5°C° 0 mm 3 mps 744 mmHg 80%
    17:00 -6°C° 0 mm 3 mps 743 mmHg 82%
    18:00 -7°C° 0 mm 3 mps 743 mmHg 82%
    19:00 -7°C° 0 mm 3 mps 743 mmHg 82%
    20:00 -8°C° 0 mm 3 mps 743 mmHg 82%
    21:00 -9°C° 0 mm 4 mps 743 mmHg 82%
    22:00 -9°C° 0 mm 4 mps 743 mmHg 82%
    23:00 -9°C° 0 mm 4 mps 743 mmHg 82%
    Show more